GW0064 Weather Reports


Display with metric or nautical units.
time (UTC)temp
F
wind
direction
speed
MPH
gust
MPH
rain 1hr
in
rain 24hr
in
rain mn
in
humidity
%
barometer
mb
20260510145001 59 15 4.0 9.0 0.00 0.01 0.01 56 1017.6
20260510144502 59 36 2.0 8.0 0.00 0.01 0.01 58 1017.6
20260510144001 59 19 4.0 9.0 0.00 0.01 0.01 58 1017.6
20260510143502 58 65 5.0 8.0 0.00 0.01 0.01 59 1017.5
20260510143001 58 47 4.0 9.0 0.00 0.01 0.01 59 1017.4
20260510142502 58 62 6.0 10.0 0.00 0.01 0.01 58 1017.4
20260510142001 58 13 4.0 9.0 0.00 0.01 0.01 61 1017.3
20260510141501 58 26 5.0 9.0 0.00 0.01 0.01 61 1017.3
20260510140501 57 7 6.0 9.0 0.00 0.01 0.01 62 1017.2
20260510140004 57 39 5.0 10.0 0.00 0.01 0.01 60 1017.1
20260510135501 57 37 5.0 11.0 0.00 0.01 0.01 60 1017.0
20260510135002 57 46 5.0 11.0 0.00 0.01 0.01 61 1016.9
20260510134500 57 75 6.0 9.0 0.00 0.01 0.01 61 1017.0
20260510134001 56 39 5.0 9.0 0.00 0.01 0.01 63 1016.9
20260510133501 56 39 5.0 12.0 0.00 0.01 0.01 63 1016.9
20260510132500 56 11 6.0 10.0 0.00 0.01 0.01 63 1016.7
20260510132001 55 18 8.0 11.0 0.00 0.01 0.01 63 1016.6
20260510131501 55 340 8.0 11.0 0.00 0.01 0.01 63 1016.5
20260510130501 55 45 7.0 12.0 0.00 0.01 0.01 65 1016.4
20260510130004 55 30 7.0 12.0 0.00 0.01 0.01 64 1016.3
20260510125503 55 39 6.0 10.0 0.00 0.01 0.01 67 1016.2
20260510125002 55 349 5.0 9.0 0.00 0.01 0.01 68 1016.3
20260510124501 55 356 5.0 9.0 0.00 0.01 0.01 69 1016.1
20260510124002 54 15 5.0 12.0 0.00 0.01 0.01 68 1016.0
20260510123505 54 14 6.0 12.0 0.00 0.01 0.01 69 1015.8
20260510123001 54 32 7.0 10.0 0.00 0.01 0.01 70 1015.6
20260510122502 54 37 6.0 12.0 0.00 0.01 0.01 71 1015.7
20260510122002 53 39 8.0 12.0 0.00 0.01 0.01 69 1015.6
20260510121501 53 39 6.0 10.0 0.00 0.01 0.01 72 1015.6
20260510121001 53 23 6.0 10.0 0.00 0.01 0.01 1015.7
20260510120501 53 45 5.0 10.0 0.00 0.01 0.01 72 1015.6
20260510120005 53 15 5.0 10.0 0.00 0.01 0.01 72 1015.4
20260510115501 53 11 5.0 8.0 0.00 0.01 0.01 73 1015.3
20260510115001 53 17 3.0 7.0 0.00 0.01 0.01 74 1015.2
20260510114502 53 6 3.0 5.0 0.00 0.01 0.01 74 1015.1
20260510114001 53 29 2.0 4.0 0.00 0.01 0.01 78 1015.2
20260510113004 52 36 1.0 3.0 0.00 0.01 0.01 76 1014.9
20260510112504 52 33 2.0 3.0 0.00 0.01 0.01 75 1014.6
20260510112002 52 51 1.0 3.0 0.00 0.01 0.01 76 1014.6
20260510111501 51 42 2.0 3.0 0.00 0.01 0.01 76 1014.5
20260510111002 51 35 2.0 3.0 0.00 0.01 0.01 77 1014.2
20260510110501 51 32 1.0 4.0 0.00 0.01 0.01 78 1014.2
20260510110005 51 17 2.0 4.0 0.00 0.01 0.01 78 1014.2
20260510105500 51 33 3.0 4.0 0.00 0.01 0.01 78 1014.0
20260510105000 52 23 1.0 3.0 0.00 0.01 0.01 78 1014.0
20260510103501 52 34 1.0 2.0 0.00 0.01 0.01 79 1014.0
20260510102959 52 22 0.0 0.0 0.00 0.01 0.01 79 1014.1
20260510102500 52 23 0.0 0.0 0.00 0.01 0.01 79 1013.9
20260510102000 53 22 0.0 1.0 0.00 0.01 0.01 78 1014.0
20260510101459 53 22 0.0 1.0 0.00 0.01 0.01 77 1013.9
20260510101000 53 22 0.0 2.0 0.00 0.01 0.01 76 1013.8
20260510100500 53 23 0.0 2.0 0.00 0.01 0.01 76 1013.8
20260510100002 53 23 0.0 1.0 0.00 0.01 0.01 76 1013.6
20260510095000 53 23 0.0 1.0 0.00 0.01 0.01 77 1013.7
20260510094459 53 23 0.0 1.0 0.00 0.01 0.01 76 1013.6
20260510094000 53 23 0.0 2.0 0.00 0.01 0.01 76 1013.5
20260510092002 53 19 1.0 1.0 0.00 0.01 0.01 79 1013.2
20260510091459 53 19 0.0 0.0 0.00 0.01 0.01 78 1013.3
20260510090500 53 19 0.0 1.0 0.01 0.01 0.01 77 1012.9
20260510090003 53 19 0.0 2.0 0.01 0.01 0.01 77 1012.9
20260510085500 53 19 0.0 4.0 0.01 0.01 0.01 76 1012.9
20260510085001 53 46 1.0 4.0 0.01 0.01 0.01 75 1012.6
20260510084000 53 43 2.0 5.0 0.01 0.01 0.01 74 1012.4
20260510083500 53 58 3.0 5.0 0.01 0.01 0.01 74 1012.2
20260510083000 53 40 3.0 4.0 0.01 0.01 0.01 75 1012.4
20260510082500 53 27 2.0 4.0 0.01 0.01 0.01 76 1012.6
20260510082000 53 36 2.0 4.0 0.01 0.01 0.01 76 1012.4
20260510081001 53 37 1.0 5.0 0.01 0.01 0.01 76 1012.4
20260510080500 53 41 2.0 5.0 0.00 0.00 0.00 76 1012.3
20260510080005 53 39 3.0 4.0 0.00 0.00 0.00 75 1012.3
20260510075500 54 37 2.0 4.0 0.00 0.00 0.00 76 1012.4
20260510075000 54 36 2.0 4.0 0.00 0.00 0.00 72 1012.7
20260510074500 54 332 1.0 3.0 0.00 0.00 0.00 72 1012.6
20260510073959 54 357 2.0 5.0 0.00 0.00 0.00 72 1012.4
20260510073001 55 357 2.0 5.0 0.00 0.00 0.00 71 1012.1
20260510072500 55 24 2.0 3.0 0.00 0.00 0.00 67 1012.0
20260510072000 55 20 1.0 3.0 0.00 0.00 0.00 67 1012.1
20260510071502 56 7 2.0 5.0 0.00 0.00 0.00 67 1011.7
20260510071000 56 42 2.0 5.0 0.00 0.00 0.00 66 1011.7
20260510070502 56 23 3.0 5.0 0.00 0.00 0.00 65 1011.6
20260510070004 56 46 3.0 5.0 0.00 0.00 0.00 66 1011.6
20260510065500 56 28 3.0 5.0 0.00 0.00 0.00 66 1011.7
20260510064500 56 23 3.0 7.0 0.00 0.00 0.00 65 1011.7
20260510063500 56 25 4.0 9.0 0.00 0.00 0.00 64 1011.9
20260510062959 56 20 4.0 7.0 0.00 0.00 0.00 64 1011.9
20260510062501 56 11 4.0 7.0 0.00 0.00 0.00 65 1011.7
20260510062001 56 23 2.0 5.0 0.00 0.00 0.00 66 1011.7
20260510061459 57 37 2.0 5.0 0.00 0.00 0.00 65 1011.6
20260510061000 57 34 3.0 5.0 0.00 0.00 0.00 63 1011.4
20260510060501 57 23 3.0 5.0 0.00 0.00 0.00 65 1011.7
20260510060005 57 360 3.0 5.0 0.00 0.00 0.00 65 1011.5
20260510055500 57 22 3.0 5.0 0.00 0.00 0.00 63 1011.6
20260510055000 57 25 2.0 4.0 0.00 0.00 0.00 64 1011.4
20260510054459 57 13 3.0 5.0 0.00 0.00 0.00 64 1011.3
20260510054002 57 22 3.0 5.0 0.00 0.00 0.00 62 1011.2
20260510053500 57 64 3.0 6.0 0.00 0.00 0.00 62 1011.2
20260510052959 58 44 3.0 6.0 0.00 0.00 0.00 63 1011.2
20260510052501 58 51 3.0 7.0 0.00 0.00 0.00 61 1011.0
20260510051500 58 30 3.0 7.0 0.00 0.00 0.00 62 1010.9
20260510051000 58 20 3.0 7.0 0.00 0.00 0.00 61 1010.8
20260510050500 58 34 4.0 7.0 0.00 0.00 0.00 61 1010.8
20260510050006 59 357 4.0 8.0 0.00 0.00 0.00 60 1010.8
20260510044502 59 38 5.0 9.0 0.00 0.00 0.00 61 1010.6
20260510044002 60 30 4.0 9.0 0.00 0.00 0.00 61 1010.5
20260510043502 60 20 4.0 8.0 0.00 0.00 0.00 62 1010.5
20260510043001 61 2 4.0 5.0 0.00 0.00 0.00 62 1010.5
20260510042001 61 328 2.0 5.0 0.00 0.00 0.00 66 1010.3
20260510041501 61 301 2.0 5.0 0.00 0.00 0.00 67 1010.3
20260510041001 61 300 3.0 8.0 0.00 0.00 0.00 65 1010.2
20260510040501 61 271 4.0 8.0 0.00 0.00 0.00 67 1010.1
20260510040009 61 283 3.0 4.0 0.00 0.00 0.00 69 1010.1
20260510035504 62 278 2.0 4.0 0.00 0.00 0.00 68 1010.0
20260510035005 62 286 3.0 8.0 0.00 0.00 0.00 67 1010.0
20260510034504 63 294 4.0 8.0 0.00 0.00 0.00 64 1009.9
20260510034003 63 275 3.0 5.0 0.00 0.00 0.00 65 1009.8
20260510033506 63 283 3.0 6.0 0.00 0.00 0.00 64 1009.8
20260510033005 64 280 4.0 6.0 0.00 0.00 0.00 62 1009.9
20260510031002 65 249 5.0 9.0 0.00 0.00 0.00 66 1009.5
20260510030505 65 269 5.0 8.0 0.00 0.00 0.00 68 1009.5
20260510025502 65 256 4.0 7.0 0.00 0.00 0.00 70 1009.4
20260510025001 65 257 3.0 7.0 0.00 0.00 0.00 70 1009.4
20260510024502 65 237 3.0 6.0 0.00 0.00 0.00 70 1009.4
20260510024003 64 260 4.0 7.0 0.00 0.00 0.00 69 1009.3
20260510023503 65 242 4.0 6.0 0.00 0.00 0.00 71 1009.3
20260510023002 64 250 4.0 6.0 0.00 0.00 0.00 71 1009.3
20260510022502 64 234 2.0 4.0 0.00 0.00 0.00 71 1009.2
20260510022004 64 226 2.0 5.0 0.00 0.00 0.00 71 1009.1
20260510021001 65 246 2.0 4.0 0.00 0.00 0.00 71 1008.9
20260510020502 65 263 2.0 6.0 0.00 0.00 0.00 70 1008.9
20260510020005 65 261 3.0 6.0 0.00 0.00 0.00 70 1008.8
20260510015501 65 253 4.0 6.0 0.00 0.00 0.00 70 1008.8
20260510014501 65 271 4.0 8.0 0.00 0.00 0.00 71 1008.6
20260510014001 64 285 6.0 8.0 0.00 0.00 0.00 72 1008.5
20260510013502 65 304 3.0 5.0 0.00 0.00 0.00 74 1008.5
20260510013004 65 277 3.0 5.0 0.00 0.00 0.00 73 1008.1
20260510012501 65 270 2.0 5.0 0.00 0.00 0.00 72 1007.9
20260510012002 66 237 3.0 6.0 0.00 0.00 0.00 71 1007.8
20260510011502 66 217 3.0 7.0 0.00 0.00 0.00 71 1007.6
20260510011003 66 243 4.0 7.0 0.00 0.00 0.00 70 1007.6
20260510010503 66 236 4.0 7.0 0.00 0.00 0.00 70 1007.5
20260510010006 66 237 4.0 8.0 0.00 0.00 0.00 70 1007.5
20260510005501 66 229 4.0 8.0 0.00 0.00 0.00 69 1007.3
20260510005002 67 221 4.0 8.0 0.00 0.00 0.00 68 1007.4
20260510004502 67 238 4.0 9.0 0.00 0.00 0.00 67 1007.3
20260510004001 67 239 4.0 9.0 0.00 0.00 0.00 66 1007.2
20260510003502 67 233 5.0 9.0 0.00 0.00 0.00 65 1007.2
20260510002503 68 247 5.0 12.0 0.00 0.00 0.00 63 1007.1
20260510002002 68 242 7.0 12.0 0.00 0.00 0.00 62 1007.1
20260510000501 69 221 7.0 12.0 0.00 0.00 0.00 61 1006.8
20260510000005 69 236 6.0 13.0 0.00 0.00 0.00 60 1006.8
20260509235501 69 242 8.0 13.0 0.00 0.00 0.00 59 1006.8
20260509234004 70 255 8.0 14.0 0.00 0.00 0.00 58 1006.8
20260509233502 70 233 7.0 14.0 0.00 0.00 0.00 58 1006.7
20260509232502 70 243 9.0 14.0 0.00 0.00 0.00 1006.7
20260509232004 70 266 10.0 14.0 0.00 0.00 0.00 56 1006.7
20260509231501 70 241 10.0 17.0 0.00 0.00 0.00 56 1006.7
20260509225503 71 274 10.0 17.0 0.00 0.01 0.00 100 1006.5
20260509225002 0 266 10.0 19.0 0.00 0.01 0.00 1006.4
20260509224501 71 236 11.0 19.0 0.00 0.01 0.00 54 1006.4
20260509224001 0 265 10.0 16.0 0.00 0.01 0.00 55 1006.5
20260509223502 70 297 8.0 15.0 0.00 0.01 0.00 57 1006.6
20260509222502 70 238 10.0 18.0 0.00 0.01 0.00 57 1006.7
20260509221501 0 300 10.0 15.0 0.00 0.01 0.00 1006.5
20260509221002 0 241 8.0 14.0 0.00 0.01 0.00 1006.5
20260509220504 0 232 9.0 15.0 0.00 0.01 0.00 1006.4
20260509220006 71 271 10.0 18.0 0.00 0.01 0.00 52 1006.4
20260509215501 71 245 10.0 18.0 0.00 0.06 0.00 52 1006.3
20260509215002 71 290 10.0 18.0 0.00 0.06 0.00 100 1006.3
20260509214502 0 231 12.0 18.0 0.00 0.06 0.00 100 1006.4
20260509213504 72 258 11.0 17.0 0.00 0.06 0.00 54 1006.2
20260509213002 0 236 10.0 21.0 0.00 0.06 0.00 1006.2
20260509212501 0 262 12.0 21.0 0.00 0.06 0.00 1006.3
20260509212003 0 271 9.0 20.0 0.00 0.06 0.00 1006.3
20260509211503 71 256 13.0 20.0 0.00 0.06 0.00 55 1006.3
20260509211002 71 269 11.0 20.0 0.00 0.06 0.00 56 1006.5
20260509210501 0 276 14.0 20.0 0.00 0.06 0.00 56 1006.4
20260509210005 71 267 10.0 19.0 0.00 0.06 0.00 57 1006.4
20260509205503 71 254 11.0 19.0 0.00 0.11 0.00 57 1006.4
20260509205001 71 233 11.0 20.0 0.00 0.11 0.00 57 1006.3
20260509204001 71 258 15.0 22.0 0.00 0.11 0.00 56 1006.4
20260509203502 0 215 12.0 20.0 0.00 0.11 0.00 1006.3
20260509203002 0 250 12.0 24.0 0.00 0.11 0.00 1006.4
20260509202501 71 273 14.0 24.0 0.00 0.11 0.00 53 1006.5
20260509202001 71 243 13.0 21.0 0.00 0.11 0.00 54 1006.5
20260509201501 71 254 13.0 22.0 0.00 0.11 0.00 54 1006.4
20260509200501 71 267 11.0 21.0 0.00 0.11 0.00 55 1006.5
20260509200005 0 213 13.0 21.0 0.00 0.11 0.00 1006.4
20260509195501 70 248 11.0 19.0 0.00 0.16 0.00 57 1006.5
20260509195001 71 275 14.0 19.0 0.00 0.16 0.00 55 1006.6
20260509194501 70 236 13.0 22.0 0.00 0.16 0.00 59 1006.6
20260509194004 70 255 14.0 22.0 0.00 0.16 0.00 57 1006.6
20260509193501 0 240 11.0 17.0 0.00 0.16 0.00 61 1006.7
20260509193002 0 246 10.0 17.0 0.00 0.16 0.00 62 1006.7
20260509192501 0 278 12.0 17.0 0.00 0.16 0.00 100 1006.7
20260509192004 0 258 10.0 17.0 0.00 0.16 0.00 1006.7
20260509191502 70 248 10.0 19.0 0.00 0.16 0.00 65 1006.6
20260509191002 70 255 10.0 16.0 0.00 0.16 0.00 64 1006.7
20260509190005 69 262 11.0 15.0 0.00 0.16 0.00 66 1006.7
20260509185001 0 256 9.0 16.0 0.00 0.16 0.00 67 1006.9
20260509184503 69 252 10.0 18.0 0.00 0.16 0.00 68 1006.9
20260509183501 69 259 12.0 18.0 0.00 0.16 0.00 67 1006.9
20260509183001 69 240 10.0 18.0 0.00 0.16 0.00 68 1006.9
20260509182501 69 205 8.0 16.0 0.00 0.16 0.00 68 1006.9
20260509182002 68 233 11.0 16.0 0.00 0.16 0.00 67 1006.9
20260509181501 68 238 9.0 17.0 0.00 0.16 0.00 68 1006.9
20260509180501 68 224 10.0 16.0 0.00 0.16 0.00 66 1007.0
20260509175002 67 258 11.0 16.0 0.00 0.16 0.00 68 1007.0
20260509174501 67 260 10.0 16.0 0.00 0.16 0.00 69 1007.0
20260509174001 67 221 9.0 19.0 0.00 0.16 0.00 68 1007.0
20260509173002 66 257 9.0 19.0 0.00 0.16 0.00 69 1007.0
20260509172501 66 165 10.0 19.0 0.00 0.16 0.00 69 1007.2
20260509172001 66 238 10.0 18.0 0.00 0.16 0.00 71 1007.2
20260509171502 66 173 10.0 20.0 0.00 0.16 0.00 70 1007.2
20260509171002 66 222 12.0 20.0 0.00 0.16 0.00 70 1007.3
20260509170004 65 220 10.0 15.0 0.00 0.16 0.00 72 1007.2
20260509165502 65 243 9.0 19.0 0.00 0.16 0.00 74 1007.2
20260509165002 65 244 12.0 19.0 0.00 0.16 0.00 69 1007.2
20260509164501 65 256 10.0 18.0 0.00 0.16 0.00 72 1007.2
20260509164005 64 162 10.0 18.0 0.00 0.16 0.00 73 1007.3
20260509163501 64 198 10.0 15.0 0.00 0.16 0.00 74 1007.3
20260509163001 64 269 10.0 19.0 0.00 0.16 0.00 74 1007.2
20260509162502 64 235 9.0 19.0 0.00 0.16 0.00 76 1007.2
20260509162002 64 250 10.0 18.0 0.00 0.16 0.00 75 1007.3
20260509161501 63 220 10.0 16.0 0.00 0.16 0.00 75 1007.4
20260509161004 63 255 10.0 19.0 0.00 0.16 0.00 75 1007.5
20260509160501 63 242 10.0 19.0 0.00 0.16 0.00 76 1007.5
20260509160006 63 248 9.0 16.0 0.00 0.16 0.00 78 1007.5
20260509155501 63 238 11.0 16.0 0.00 0.16 0.00 75 1007.5
20260509155001 62 262 9.0 18.0 0.00 0.16 0.00 77 1007.4
20260509154002 62 228 10.0 14.0 0.00 0.16 0.00 76 1007.3
20260509151501 61 198 8.0 14.0 0.00 0.16 0.00 77 1007.3
20260509151002 61 241 9.0 16.0 0.00 0.16 0.00 79 1007.3
20260509150503 61 220 7.0 16.0 0.00 0.16 0.00 78 1007.2